Retour au catalogue

COSMOS 1275 DEB

ActifPO
NORAD 13019·DEBRIS·🇷🇺 Russia

Lancé Jun 4, 1981 depuis Plesetsk Cosmodrome

Loading…

Prochains Passages (prochaines 24 heures)

TLE

FraisSource: Space-Track

Époque: Sep 13, 2026, 19:35 UTC

1 13019U 81053ER  26256.81597631  .00001082  00000-0  68031-3 0  9994
2 13019  82.9420  19.8647 0068437  48.9907 112.4644 14.02372797258819

Suivez COSMOS 1275 DEB en temps réel avec AllMySat

Download on the App Store